Location: *
(46.1866°S, 178.5290°W)
Time: 15:12:59
(UTC+00:00)

Cosmos 1461 - Pass Details

Date: 01 October 2021
Orbit: 520 x 642 km, 65.0° (Epoch: 24 October)

Event Time Altitude Azimuth Distance (km) Brightness Sun altitude
Rises 09:16:46 0° 297° (WNW) 2,743 6.6 -30.8°
Enters shadow 09:19:06 10° 287° (WNW) 1,881 5.8 -31.1°
Exits shadow 09:26:20 13° 163° (SSE) 1,774 5.7 -31.9°
Drops below altitude 10° 09:26:53 10° 159° (SSE) 1,963 5.9 -32.0°
Sets 09:29:25 0° 149° (SSE) 2,895 6.7 -32.3°
